Tracking 28790 objects as of 19-Apr-2024
HD Live streaming from Space Station
objects crossing your sky now

FENGYUN 1C DEB

Track FENGYUN 1C DEB now!
10-day predictions


NORAD ID: 32179
Int'l Code: 1999-025CTZ
Perigee: 783.7 km
Apogee: 998.0 km
Inclination: 99.0 °
Period: 102.6 minutes
Semi major axis: 7261 km
RCS: 0.0023 m2 (small)
Launch date: May 10, 1999
Source: People's Republic of China (PRC)
Launch site: Taiyaun Space Center, China (TSC)

Note: This is SATELLITE DEBRIS
Your satellite tracking list
Your tracking list is empty




NASA's NSSDC Master Catalog

Two Line Element Set (TLE):
1 32179U 99025CTZ 24106.88562274  .00000834  00000-0  51381-3 0  9998
2 32179  98.9900 159.1797 0147527  76.9188  97.4572 14.02926199857268
Source of the keplerian elements: AFSPC